TimeEET,TemperatureF,Dew PointF,Humidity,Sea Level PressureIn,VisibilityMPH,Wind Direction,Wind SpeedMPH,Gust SpeedMPH,PrecipitationIn,Events,Conditions,WindDirDegrees,DateUTC
12:20 AM,53.6,44.6,72,29.83,6.2,WSW,4.6,-,N/A,,Scattered Clouds,240,2013-03-19 22:20:00
12:50 AM,53.6,44.6,72,29.83,6.2,WNW,4.6,-,N/A,,Mostly Cloudy,290,2013-03-19 22:50:00
1:20 AM,55.4,44.6,67,29.83,6.2,SW,11.5,-,N/A,,Scattered Clouds,230,2013-03-19 23:20:00
1:50 AM,53.6,44.6,72,29.86,6.2,WSW,6.9,-,N/A,,Mostly Cloudy,250,2013-03-19 23:50:00
2:00 AM,54,45,62,29.86,6,WSW,6.9,,,,Partly Cloudy,250,2013-03-20 00:00:00
2:20 AM,53.6,44.6,72,29.83,6.2,WSW,5.8,-,N/A,,Mostly Cloudy,250,2013-03-20 00:20:00
2:50 AM,51.8,44.6,76,29.83,6.2,WSW,4.6,-,N/A,,Mostly Cloudy,250,2013-03-20 00:50:00
3:20 AM,53.6,44.6,72,29.86,6.2,SW,9.2,-,N/A,,Mostly Cloudy,220,2013-03-20 01:20:00
3:50 AM,53.6,44.6,72,29.86,6.2,WSW,4.6,-,N/A,,Mostly Cloudy,240,2013-03-20 01:50:00
4:20 AM,53.6,44.6,72,29.86,6.2,North,3.5,-,N/A,,Mostly Cloudy,10,2013-03-20 02:20:00
4:50 AM,53.6,44.6,72,29.89,6.2,North,4.6,-,N/A,,Mostly Cloudy,350,2013-03-20 02:50:00
5:20 AM,55.4,44.6,67,29.89,6.2,Variable,2.3,-,N/A,,Mostly Cloudy,0,2013-03-20 03:20:00
5:50 AM,53.6,44.6,72,29.89,6.2,Variable,1.2,-,N/A,,Mostly Cloudy,0,2013-03-20 03:50:00
6:20 AM,51.8,44.6,76,29.89,6.2,North,4.6,-,N/A,,Mostly Cloudy,350,2013-03-20 04:20:00
6:50 AM,51.8,44.6,76,29.89,6.2,NNW,5.8,-,N/A,,Mostly Cloudy,340,2013-03-20 04:50:00
7:20 AM,51.8,44.6,76,29.92,6.2,NNW,8.1,-,N/A,,Mostly Cloudy,340,2013-03-20 05:20:00
7:50 AM,51.8,44.6,76,29.92,6.2,NNW,6.9,-,N/A,,Mostly Cloudy,340,2013-03-20 05:50:00
8:00 AM,52,45,69,29.94,6,NNW,6.9,,,,Mostly Cloudy,340,2013-03-20 06:00:00
8:20 AM,53.6,44.6,72,29.95,6.2,NNW,5.8,-,N/A,,Mostly Cloudy,340,2013-03-20 06:20:00
8:50 AM,55.4,44.6,67,29.95,6.2,Variable,1.2,-,N/A,,Mostly Cloudy,0,2013-03-20 06:50:00
9:20 AM,57.2,44.6,63,29.95,6.2,Variable,2.3,-,N/A,,Mostly Cloudy,0,2013-03-20 07:20:00
9:50 AM,57.2,44.6,63,29.95,6.2,WSW,3.5,-,N/A,,Mostly Cloudy,250,2013-03-20 07:50:00
10:20 AM,57.2,44.6,63,29.95,6.2,Variable,3.5,-,N/A,,Mostly Cloudy,0,2013-03-20 08:20:00
10:50 AM,57.2,44.6,63,29.98,6.2,SW,4.6,-,N/A,,Mostly Cloudy,220,2013-03-20 08:50:00
11:20 AM,57.2,44.6,63,29.98,6.2,SW,3.5,-,N/A,,Mostly Cloudy,230,2013-03-20 09:20:00
11:50 AM,57.2,46.4,67,29.98,6.2,WSW,4.6,-,N/A,,Mostly Cloudy,240,2013-03-20 09:50:00
12:20 PM,59.0,46.4,63,29.98,6.2,Variable,2.3,-,N/A,,Mostly Cloudy,0,2013-03-20 10:20:00
12:50 PM,62.6,46.4,55,29.95,3.7,Variable,4.6,-,N/A,,Mostly Cloudy,0,2013-03-20 10:50:00
1:20 PM,62.6,48.2,59,29.95,3.7,ESE,4.6,-,N/A,,Scattered Clouds,120,2013-03-20 11:20:00
1:50 PM,60.8,44.6,55,29.95,6.2,ESE,8.1,-,N/A,,Scattered Clouds,120,2013-03-20 11:50:00
2:00 PM,61,46,47,29.96,6,ESE,8.1,,,,Partly Cloudy,120,2013-03-20 12:00:00
2:20 PM,60.8,46.4,59,29.95,-9999.0,ESE,6.9,-,N/A,,Clear,110,2013-03-20 12:20:00
2:50 PM,60.8,48.2,63,29.95,-9999.0,SE,4.6,-,N/A,,Clear,130,2013-03-20 12:50:00
3:20 PM,62.6,46.4,55,29.95,-9999.0,South,3.5,-,N/A,,Clear,180,2013-03-20 13:20:00
3:50 PM,62.6,48.2,59,29.95,-9999.0,SSW,4.6,-,N/A,,Clear,210,2013-03-20 13:50:00
4:20 PM,62.6,46.4,55,29.95,-9999.0,Variable,2.3,-,N/A,,Clear,0,2013-03-20 14:20:00
4:50 PM,57.2,48.2,72,29.95,-9999.0,SSW,4.6,-,N/A,,Clear,200,2013-03-20 14:50:00
5:20 PM,57.2,48.2,72,29.95,-9999.0,SW,3.5,-,N/A,,Clear,220,2013-03-20 15:20:00
5:50 PM,55.4,46.4,72,29.95,-9999.0,WSW,3.5,-,N/A,,Clear,250,2013-03-20 15:50:00
6:20 PM,53.6,44.6,72,29.95,-9999.0,South,3.5,-,N/A,,Clear,190,2013-03-20 16:20:00
6:50 PM,53.6,44.6,72,29.95,-9999.0,South,2.3,-,N/A,,Clear,170,2013-03-20 16:50:00
7:20 PM,55.4,44.6,67,29.95,-9999.0,Variable,2.3,-,N/A,,Clear,0,2013-03-20 17:20:00
7:50 PM,55.4,44.6,67,29.95,-9999.0,Variable,2.3,-,N/A,,Clear,0,2013-03-20 17:50:00
8:00 PM,55,44,55,29.98,6,ESE,2.3,,,,Scattered Clouds,110,2013-03-20 18:00:00
8:20 PM,55.4,44.6,67,29.95,-9999.0,East,4.6,-,N/A,,Clear,90,2013-03-20 18:20:00
8:50 PM,59.0,44.6,59,29.95,-9999.0,East,5.8,-,N/A,,Clear,100,2013-03-20 18:50:00
9:20 PM,59.0,44.6,59,29.95,-9999.0,SE,5.8,-,N/A,,Clear,130,2013-03-20 19:20:00
9:50 PM,59.0,44.6,59,29.95,-9999.0,East,4.6,-,N/A,,Clear,100,2013-03-20 19:50:00
10:20 PM,55.4,42.8,63,29.95,-9999.0,East,4.6,-,N/A,,Clear,80,2013-03-20 20:20:00
10:50 PM,55.4,42.8,63,29.95,-9999.0,ENE,5.8,-,N/A,,Clear,70,2013-03-20 20:50:00
11:20 PM,57.2,42.8,59,29.95,-9999.0,ENE,3.5,-,N/A,,Clear,70,2013-03-20 21:20:00
11:50 PM,57.2,42.8,59,29.95,-9999.0,Variable,2.3,-,N/A,,Clear,0,2013-03-20 21:50:00